"datetime","temp","dp","rain_mm","uv","solar","mb","wind_mph","gust_mph","windchill","rh"
"2023-09-18 00:00:00",17.4,16.6,0.0,0.0,0,1002.2,1,2,"",95
"2023-09-18 00:01:00",17.4,16.6,0.2,0.0,0,1002.3,1,2,"",95
"2023-09-18 00:02:00",17.4,16.6,0.4,0.0,0,1002.3,1,2,"",95
"2023-09-18 00:03:00",17.4,16.6,0.4,0.0,0,1002.2,1,2,"",95
"2023-09-18 00:04:00",17.4,16.6,0.6,0.0,0,1002.1,1,2,"",95
"2023-09-18 00:05:00",17.4,16.6,0.8,0.0,0,1002.0,0,1,"",95
"2023-09-18 00:06:00",17.4,16.6,1.2,0.0,0,1002.0,0,1,"",95
"2023-09-18 00:07:00",17.4,16.6,1.4,0.0,0,1002.0,1,1,"",95
"2023-09-18 00:08:00",17.4,16.6,1.8,0.0,0,1002.1,1,2,"",95
"2023-09-18 00:09:00",17.4,16.6,2.2,0.0,0,1002.1,1,2,"",95
"2023-09-18 00:10:00",17.4,16.6,2.4,0.0,0,1002.1,1,2,"",95
"2023-09-18 00:11:00",17.4,16.6,3.0,0.0,0,1002.0,0,1,"",95
"2023-09-18 00:12:00",17.4,16.6,3.6,0.0,0,1002.0,1,2,"",95
"2023-09-18 00:13:00",17.4,16.6,3.8,0.0,0,1001.9,2,4,"",95
"2023-09-18 00:14:00",17.4,16.6,3.8,0.0,0,1001.9,1,3,"",95
"2023-09-18 00:15:00",17.4,16.6,4.0,0.0,0,1001.9,0,1,"",95
"2023-09-18 00:16:00",17.4,16.6,4.0,0.0,0,1001.8,1,2,"",95
"2023-09-18 00:17:00",17.4,16.6,4.0,0.0,0,1001.8,1,3,"",95
"2023-09-18 00:18:00",17.4,16.6,4.0,0.0,0,1001.8,1,2,"",95
"2023-09-18 00:19:00",17.4,16.6,4.2,0.0,0,1001.7,1,1,"",95
"2023-09-18 00:20:00",17.4,16.6,4.4,0.0,0,1001.7,1,1,"",95
"2023-09-18 00:21:00",17.4,16.6,4.4,0.0,0,1001.7,1,2,"",95
"2023-09-18 00:22:00",17.4,16.6,4.6,0.0,0,1001.8,2,2,"",95
"2023-09-18 00:23:00",17.4,16.6,4.8,0.0,0,1001.9,2,3,"",95
"2023-09-18 00:24:00",17.4,16.6,4.8,0.0,0,1002.0,1,3,"",95
"2023-09-18 00:25:00",17.4,16.6,4.8,0.0,0,1002.1,1,1,"",95
"2023-09-18 00:26:00",17.4,16.6,4.8,0.0,0,1002.1,1,2,"",95
"2023-09-18 00:27:00",17.4,16.6,4.8,0.0,0,1002.0,1,1,"",95
"2023-09-18 00:28:00",17.4,16.6,5.0,0.0,0,1002.0,1,2,"",95
"2023-09-18 00:29:00",17.4,16.6,5.0,0.0,0,1001.9,1,2,"",95
"2023-09-18 00:30:00",17.4,16.6,5.0,0.0,0,1001.8,2,2,"",95
"2023-09-18 00:31:00",17.4,16.6,5.0,0.0,0,1001.7,1,1,"",95
"2023-09-18 00:32:00",17.4,16.6,5.0,0.0,0,1001.7,1,2,"",95
"2023-09-18 00:33:00",17.3,16.5,5.0,0.0,0,1001.7,1,2,"",95
"2023-09-18 00:34:00",17.3,16.5,5.0,0.0,0,1001.7,1,1,"",95
"2023-09-18 00:35:00",17.3,16.5,5.0,0.0,0,1001.7,1,2,"",95
"2023-09-18 00:36:00",17.3,16.5,5.0,0.0,0,1001.7,1,3,"",95
"2023-09-18 00:37:00",17.3,16.5,5.0,0.0,0,1001.6,1,2,"",95
"2023-09-18 00:38:00",17.3,16.5,5.0,0.0,0,1001.6,1,3,"",95
"2023-09-18 00:39:00",17.3,16.5,5.0,0.0,0,1001.6,2,2,"",95
"2023-09-18 00:40:00",17.2,16.4,5.0,0.0,0,1001.6,1,2,"",95
"2023-09-18 00:41:00",17.2,16.4,5.0,0.0,0,1001.6,1,2,"",95
"2023-09-18 00:42:00",17.2,16.4,5.0,0.0,0,1001.6,3,4,"",95
"2023-09-18 00:43:00",17.2,16.4,5.0,0.0,0,1001.7,2,3,"",95
"2023-09-18 00:44:00",17.2,16.4,5.0,0.0,0,1001.8,1,2,"",95
"2023-09-18 00:45:00",17.2,16.4,5.0,0.0,0,1001.8,1,2,"",95
"2023-09-18 00:46:00",17.2,16.4,5.0,0.0,0,1001.8,2,3,"",95
"2023-09-18 00:47:00",17.2,16.4,5.0,0.0,0,1001.8,2,3,"",95
"2023-09-18 00:48:00",17.2,16.4,5.0,0.0,0,1001.8,2,3,"",95
"2023-09-18 00:49:00",17.2,16.4,5.0,0.0,0,1001.7,1,3,"",95
"2023-09-18 00:50:00",17.2,16.4,5.0,0.0,0,1001.7,2,4,"",95
"2023-09-18 00:51:00",17.1,16.3,5.0,0.0,0,1001.7,1,2,"",95
"2023-09-18 00:52:00",17.1,16.3,5.0,0.0,0,1001.7,2,2,"",95
"2023-09-18 00:53:00",17.1,16.3,5.0,0.0,0,1001.7,1,2,"",95
"2023-09-18 00:54:00",17.1,16.3,5.0,0.0,0,1001.8,2,3,"",95
"2023-09-18 00:55:00",17.1,16.3,5.2,0.0,0,1001.8,1,3,"",95
"2023-09-18 00:56:00",17.2,16.4,5.6,0.0,0,1001.8,0,2,"",95
"2023-09-18 00:57:00",17.2,16.4,5.8,0.0,0,1001.7,1,2,"",95
"2023-09-18 00:58:00",17.2,16.4,5.8,0.0,0,1001.7,0,1,"",95
"2023-09-18 00:59:00",17.1,16.3,5.8,0.0,0,1001.6,1,2,"",95
"2023-09-18 01:00:00",17.1,16.3,5.8,0.0,0,1001.6,0,1,"",95
"2023-09-18 01:01:00",17.1,16.3,5.8,0.0,0,1001.6,0,1,"",95
"2023-09-18 01:02:00",17.2,16.4,5.8,0.0,0,1001.7,0,1,"",95
"2023-09-18 01:03:00",17.2,16.4,5.8,0.0,0,1001.7,0,0,"",95
"2023-09-18 01:04:00",17.2,16.4,5.8,0.0,0,1001.7,0,0,"",95
"2023-09-18 01:05:00",17.1,16.3,5.8,0.0,0,1001.7,1,2,"",95
"2023-09-18 01:06:00",17.1,16.3,5.8,0.0,0,1001.6,1,2,"",95
"2023-09-18 01:07:00",17.1,16.3,5.8,0.0,0,1001.8,1,1,"",95
"2023-09-18 01:08:00",17.1,16.3,5.8,0.0,0,1001.8,0,1,"",95
"2023-09-18 01:09:00",17.1,16.3,5.8,0.0,0,1001.8,0,1,"",95
"2023-09-18 01:10:00",17.1,16.3,5.8,0.0,0,1001.8,0,1,"",95
"2023-09-18 01:11:00",17.1,16.3,5.8,0.0,0,1001.8,0,1,"",95
"2023-09-18 01:12:00",17.1,16.3,5.8,0.0,0,1001.8,0,1,"",95
"2023-09-18 01:13:00",17.1,16.3,5.8,0.0,0,1001.8,0,1,"",95
"2023-09-18 01:14:00",17.1,16.3,5.8,0.0,0,1001.7,0,1,"",95
"2023-09-18 01:15:00",17.1,16.3,5.8,0.0,0,1001.7,1,1,"",95
"2023-09-18 01:16:00",17.1,16.3,5.8,0.0,0,1001.7,0,1,"",95
"2023-09-18 01:17:00",17.2,16.4,5.8,0.0,0,1001.7,0,1,"",95
"2023-09-18 01:18:00",17.1,16.3,5.8,0.0,0,1001.7,0,1,"",95
"2023-09-18 01:19:00",17.1,16.3,5.8,0.0,0,1001.8,0,1,"",95
"2023-09-18 01:20:00",17.1,16.3,5.8,0.0,0,1001.8,0,1,"",95
"2023-09-18 01:21:00",17.1,16.3,5.8,0.0,0,1001.8,0,1,"",95
"2023-09-18 01:22:00",17.1,16.3,5.8,0.0,0,1001.8,1,2,"",95
"2023-09-18 01:23:00",17.1,16.3,5.8,0.0,0,1001.8,1,1,"",95
"2023-09-18 01:24:00",17.1,16.3,5.8,0.0,0,1001.8,1,1,"",95
"2023-09-18 01:25:00",17.1,16.3,5.8,0.0,0,1001.8,0,1,"",95
"2023-09-18 01:26:00",17.1,16.3,5.8,0.0,0,1001.9,0,1,"",95
"2023-09-18 01:27:00",17.1,16.3,5.8,0.0,0,1001.9,1,2,"",95
"2023-09-18 01:28:00",17.1,16.3,5.8,0.0,0,1001.8,0,1,"",95
"2023-09-18 01:29:00",17.1,16.3,5.8,0.0,0,1001.8,0,1,"",95
"2023-09-18 01:30:00",17.1,16.3,5.8,0.0,0,1001.8,1,1,"",95
"2023-09-18 01:31:00",17.0,16.2,5.8,0.0,0,1001.8,0,1,"",95
"2023-09-18 01:32:00",17.1,16.3,5.8,0.0,0,1001.7,1,2,"",95
"2023-09-18 01:33:00",17.0,16.2,5.8,0.0,0,1001.7,1,2,"",95
"2023-09-18 01:34:00",17.0,16.2,5.8,0.0,0,1001.8,1,2,"",95
"2023-09-18 01:35:00",17.0,16.2,5.8,0.0,0,1001.8,1,1,"",95
"2023-09-18 01:36:00",17.0,16.2,5.8,0.0,0,1001.7,0,1,"",95
"2023-09-18 01:37:00",16.9,16.1,5.8,0.0,0,1001.7,1,3,"",95
"2023-09-18 01:38:00",16.9,16.1,5.8,0.0,0,1001.7,1,3,"",95
"2023-09-18 01:39:00",16.9,16.1,5.8,0.0,0,1001.8,1,2,"",95
"2023-09-18 01:40:00",16.9,16.1,5.8,0.0,0,1001.7,1,1,"",95
"2023-09-18 01:41:00",16.9,16.1,5.8,0.0,0,1001.7,0,1,"",95
"2023-09-18 01:42:00",16.9,16.1,5.8,0.0,0,1001.6,1,3,"",95
"2023-09-18 01:43:00",16.9,16.1,5.8,0.0,0,1001.6,2,3,"",95
"2023-09-18 01:44:00",16.9,16.1,5.8,0.0,0,1001.6,1,3,"",95
"2023-09-18 01:45:00",16.9,16.1,5.8,0.0,0,1001.6,1,2,"",95
"2023-09-18 01:46:00",16.9,16.1,5.8,0.0,0,1001.6,1,2,"",95
"2023-09-18 01:47:00",16.9,16.1,5.8,0.0,0,1001.5,1,2,"",95
"2023-09-18 01:48:00",16.9,16.1,5.8,0.0,0,1001.5,1,2,"",95
"2023-09-18 01:49:00",16.9,16.1,5.8,0.0,0,1001.4,1,2,"",95
"2023-09-18 01:50:00",16.9,16.1,5.8,0.0,0,1001.3,1,2,"",95
"2023-09-18 01:51:00",16.8,16.0,5.8,0.0,0,1001.2,1,2,"",95
"2023-09-18 01:52:00",16.8,16.0,5.8,0.0,0,1001.2,1,2,"",95
"2023-09-18 01:53:00",16.8,16.0,5.8,0.0,0,1001.2,1,1,"",95
"2023-09-18 01:54:00",16.8,16.0,5.8,0.0,0,1001.2,1,2,"",95
"2023-09-18 01:55:00",16.8,16.0,5.8,0.0,0,1001.2,1,2,"",95
"2023-09-18 01:56:00",16.8,16.0,5.8,0.0,0,1001.1,1,2,"",95
"2023-09-18 01:57:00",16.7,15.9,5.8,0.0,0,1001.0,1,2,"",95
"2023-09-18 01:58:00",16.7,15.9,5.8,0.0,0,1001.0,1,2,"",95
"2023-09-18 01:59:00",16.8,16.0,5.8,0.0,0,1000.9,0,1,"",95
"2023-09-18 02:00:00",16.7,15.9,5.8,0.0,0,1000.9,0,1,"",95
"2023-09-18 02:01:00",16.7,15.9,5.8,0.0,0,1000.8,1,2,"",95
"2023-09-18 02:02:00",16.7,15.9,5.8,0.0,0,1000.8,2,2,"",95
"2023-09-18 02:03:00",16.7,15.9,5.8,0.0,0,1000.7,1,2,"",95
"2023-09-18 02:04:00",16.7,15.9,5.8,0.0,0,1000.6,1,2,"",95
"2023-09-18 02:05:00",16.7,15.9,5.8,0.0,0,1000.6,0,1,"",95
"2023-09-18 02:06:00",16.7,15.9,5.8,0.0,0,1000.5,1,2,"",95
"2023-09-18 02:07:00",16.7,15.9,5.8,0.0,0,1000.6,0,1,"",95
"2023-09-18 02:08:00",16.7,15.9,5.8,0.0,0,1000.6,0,1,"",95
"2023-09-18 02:09:00",16.7,15.9,5.8,0.0,0,1000.5,0,1,"",95
"2023-09-18 02:10:00",16.7,15.9,5.8,0.0,0,1000.5,0,1,"",95
"2023-09-18 02:11:00",16.7,15.9,5.8,0.0,0,1000.5,0,1,"",95
"2023-09-18 02:12:00",16.7,15.9,5.8,0.0,0,1000.4,0,1,"",95
"2023-09-18 02:13:00",16.7,15.9,5.8,0.0,0,1000.4,1,1,"",95
"2023-09-18 02:14:00",16.7,15.9,5.8,0.0,0,1000.4,1,2,"",95
"2023-09-18 02:15:00",16.7,15.9,5.8,0.0,0,1000.5,1,2,"",95
"2023-09-18 02:16:00",16.7,15.9,5.8,0.0,0,1000.5,1,2,"",95
"2023-09-18 02:17:00",16.7,15.9,5.8,0.0,0,1000.5,1,2,"",95
"2023-09-18 02:18:00",16.6,15.8,5.8,0.0,0,1000.5,2,2,"",95
"2023-09-18 02:19:00",16.6,15.8,5.8,0.0,0,1000.5,1,2,"",95
"2023-09-18 02:20:00",16.6,15.8,5.8,0.0,0,1000.5,1,2,"",95
"2023-09-18 02:21:00",16.6,15.8,5.8,0.0,0,1000.5,1,2,"",95
"2023-09-18 02:22:00",16.6,15.8,5.8,0.0,0,1000.5,1,2,"",95
"2023-09-18 02:23:00",16.6,15.8,5.8,0.0,0,1000.5,1,2,"",95
"2023-09-18 02:24:00",16.6,15.8,5.8,0.0,0,1000.5,1,2,"",95
"2023-09-18 02:25:00",16.6,15.8,5.8,0.0,0,1000.5,0,2,"",95
"2023-09-18 02:26:00",16.5,15.7,5.8,0.0,0,1000.6,1,2,"",95
"2023-09-18 02:27:00",16.5,15.7,5.8,0.0,0,1000.5,1,1,"",95
"2023-09-18 02:28:00",16.5,15.7,5.8,0.0,0,1000.5,0,1,"",95
"2023-09-18 02:29:00",16.5,15.7,5.8,0.0,0,1000.5,0,0,"",95
"2023-09-18 02:30:00",16.4,15.6,5.8,0.0,0,1000.5,0,1,"",95
"2023-09-18 02:31:00",16.4,15.6,5.8,0.0,0,1000.5,0,1,"",95
"2023-09-18 02:32:00",16.4,15.6,5.8,0.0,0,1000.5,0,1,"",95
"2023-09-18 02:33:00",16.3,15.5,5.8,0.0,0,1000.5,0,1,"",95
"2023-09-18 02:34:00",16.3,15.5,5.8,0.0,0,1000.5,1,1,"",95
"2023-09-18 02:35:00",16.3,15.5,5.8,0.0,0,1000.5,1,1,"",95
"2023-09-18 02:36:00",16.2,15.4,5.8,0.0,0,1000.5,1,2,"",95
"2023-09-18 02:37:00",16.2,15.4,5.8,0.0,0,1000.5,0,1,"",95
"2023-09-18 02:38:00",16.2,15.4,5.8,0.0,0,1000.4,1,2,"",95
"2023-09-18 02:39:00",16.2,15.4,5.8,0.0,0,1000.4,0,1,"",95
"2023-09-18 02:40:00",16.2,15.4,5.8,0.0,0,1000.4,1,1,"",95
"2023-09-18 02:41:00",16.2,15.4,5.8,0.0,0,1000.4,1,2,"",95
"2023-09-18 02:42:00",16.1,15.3,5.8,0.0,0,1000.4,2,2,"",95
"2023-09-18 02:43:00",16.1,15.3,5.8,0.0,0,1000.4,1,2,"",95
"2023-09-18 02:44:00",16.0,15.2,5.8,0.0,0,1000.4,2,3,"",95
"2023-09-18 02:45:00",16.0,15.2,5.8,0.0,0,1000.3,2,2,"",95
"2023-09-18 02:46:00",15.9,15.1,5.8,0.0,0,1000.3,1,2,"",95
"2023-09-18 02:47:00",15.9,15.1,5.8,0.0,0,1000.3,1,1,"",95
"2023-09-18 02:48:00",15.9,15.1,5.8,0.0,0,1000.2,1,2,"",95
"2023-09-18 02:49:00",15.9,15.1,5.8,0.0,0,1000.2,1,2,"",95
"2023-09-18 02:50:00",15.9,15.1,5.8,0.0,0,1000.2,1,2,"",95
"2023-09-18 02:51:00",15.9,15.1,5.8,0.0,0,1000.1,1,2,"",95
"2023-09-18 02:52:00",15.9,15.1,5.8,0.0,0,1000.1,1,2,"",95
"2023-09-18 02:53:00",15.8,15.0,5.8,0.0,0,1000.1,1,2,"",95
"2023-09-18 02:54:00",15.8,15.0,5.8,0.0,0,1000.1,1,2,"",95
"2023-09-18 02:55:00",15.7,14.9,5.8,0.0,0,1000.1,1,2,"",95
"2023-09-18 02:56:00",15.7,14.9,5.8,0.0,0,1000.1,1,2,"",95
"2023-09-18 02:57:00",15.7,14.9,5.8,0.0,0,1000.2,1,2,"",95
"2023-09-18 02:58:00",15.7,14.9,5.8,0.0,0,1000.2,2,2,"",95
"2023-09-18 02:59:00",15.7,14.9,5.8,0.0,0,1000.2,1,2,"",95
"2023-09-18 03:00:00",15.7,14.9,5.8,0.0,0,1000.2,1,2,"",95
"2023-09-18 03:01:00",15.7,14.9,5.8,0.0,0,1000.2,1,2,"",95
"2023-09-18 03:02:00",15.7,14.9,5.8,0.0,0,1000.2,1,2,"",95
"2023-09-18 03:03:00",15.7,14.9,5.8,0.0,0,1000.2,1,2,"",95
"2023-09-18 03:04:00",15.7,14.9,5.8,0.0,0,1000.3,2,3,"",95
"2023-09-18 03:05:00",15.7,14.9,5.8,0.0,0,1000.2,1,2,"",95
"2023-09-18 03:06:00",15.7,15.1,5.8,0.0,0,1000.1,2,2,"",96
"2023-09-18 03:07:00",15.8,15.0,5.8,0.0,0,1000.2,1,2,"",95
"2023-09-18 03:08:00",15.7,15.1,5.8,0.0,0,1000.2,1,2,"",96
"2023-09-18 03:09:00",15.8,15.2,5.8,0.0,0,1000.1,2,3,"",96
"2023-09-18 03:10:00",15.7,14.9,5.8,0.0,0,1000.2,1,2,"",95
"2023-09-18 03:11:00",15.8,15.2,5.8,0.0,0,1000.2,1,2,"",96
"2023-09-18 03:12:00",15.8,15.2,5.8,0.0,0,1000.1,1,3,"",96
"2023-09-18 03:13:00",15.8,15.2,5.8,0.0,0,1000.2,1,1,"",96
"2023-09-18 03:14:00",15.8,15.2,5.8,0.0,0,1000.1,0,2,"",96
"2023-09-18 03:15:00",15.8,15.2,5.8,0.0,0,1000.1,0,1,"",96
"2023-09-18 03:16:00",15.8,15.2,5.8,0.0,0,1000.1,0,1,"",96
"2023-09-18 03:17:00",15.8,15.2,5.8,0.0,0,1000.0,0,1,"",96
"2023-09-18 03:18:00",15.8,15.2,5.8,0.0,0,1000.0,0,1,"",96
"2023-09-18 03:19:00",15.8,15.2,5.8,0.0,0,1000.0,1,2,"",96
"2023-09-18 03:20:00",15.8,15.2,5.8,0.0,0,1000.1,1,2,"",96
"2023-09-18 03:21:00",15.7,14.9,5.8,0.0,0,1000.1,1,2,"",95
"2023-09-18 03:22:00",15.6,14.8,5.8,0.0,0,1000.1,1,1,"",95
"2023-09-18 03:23:00",15.6,14.8,5.8,0.0,0,1000.0,1,2,"",95
"2023-09-18 03:24:00",15.6,14.8,5.8,0.0,0,1000.0,2,2,"",95
"2023-09-18 03:25:00",15.6,14.8,5.8,0.0,0,1000.0,2,3,"",95
"2023-09-18 03:26:00",15.5,14.7,5.8,0.0,0,1000.0,1,2,"",95
"2023-09-18 03:27:00",15.5,14.7,5.8,0.0,0,1000.0,1,2,"",95
"2023-09-18 03:28:00",15.5,14.7,5.8,0.0,0,1000.0,1,2,"",95
"2023-09-18 03:29:00",15.5,14.7,5.8,0.0,0,1000.0,1,3,"",95
"2023-09-18 03:30:00",15.4,14.6,5.8,0.0,0,1000.0,1,2,"",95
"2023-09-18 03:31:00",15.4,14.6,5.8,0.0,0,1000.0,1,2,"",95
"2023-09-18 03:32:00",15.5,14.7,5.8,0.0,0,999.8,1,2,"",95
"2023-09-18 03:33:00",15.5,14.7,5.8,0.0,0,999.8,0,1,"",95
"2023-09-18 03:34:00",15.5,14.7,5.8,0.0,0,999.8,0,1,"",95
"2023-09-18 03:35:00",15.6,14.8,5.8,0.0,0,999.8,0,1,"",95
"2023-09-18 03:36:00",15.6,14.8,5.8,0.0,0,999.8,1,1,"",95
"2023-09-18 03:37:00",15.4,14.6,5.8,0.0,0,999.8,1,2,"",95
"2023-09-18 03:38:00",15.4,14.6,5.8,0.0,0,999.8,2,3,"",95
"2023-09-18 03:39:00",15.4,14.6,5.8,0.0,0,999.9,2,3,"",95
"2023-09-18 03:40:00",15.4,14.6,5.8,0.0,0,999.9,1,2,"",95
"2023-09-18 03:41:00",15.4,14.6,5.8,0.0,0,999.9,1,2,"",95
"2023-09-18 03:42:00",15.3,14.5,5.8,0.0,0,999.9,1,2,"",95
"2023-09-18 03:43:00",15.2,14.4,5.8,0.0,0,999.9,1,2,"",95
"2023-09-18 03:44:00",15.2,14.4,5.8,0.0,0,999.9,1,2,"",95
"2023-09-18 03:45:00",15.2,14.4,5.8,0.0,0,999.9,1,2,"",95
"2023-09-18 03:46:00",15.2,14.4,5.8,0.0,0,999.9,1,2,"",95
"2023-09-18 03:47:00",15.2,14.4,5.8,0.0,0,999.9,0,1,"",95
"2023-09-18 03:48:00",15.2,14.4,5.8,0.0,0,999.9,0,1,"",95
"2023-09-18 03:49:00",15.2,14.4,5.8,0.0,0,999.9,0,1,"",95
"2023-09-18 03:50:00",15.2,14.4,5.8,0.0,0,999.9,1,1,"",95
"2023-09-18 03:51:00",15.2,14.4,5.8,0.0,0,999.9,0,1,"",95
"2023-09-18 03:52:00",15.2,14.4,5.8,0.0,0,1000.0,1,2,"",95
"2023-09-18 03:53:00",15.2,14.4,5.8,0.0,0,1000.0,0,1,"",95
"2023-09-18 03:54:00",15.2,14.4,5.8,0.0,0,999.9,1,1,"",95
"2023-09-18 03:55:00",15.2,14.4,5.8,0.0,0,1000.0,0,2,"",95
"2023-09-18 03:56:00",15.2,14.4,5.8,0.0,0,999.9,0,1,"",95
"2023-09-18 03:57:00",15.1,14.3,5.8,0.0,0,999.9,1,1,"",95
"2023-09-18 03:58:00",15.1,14.3,5.8,0.0,0,999.9,2,3,"",95
"2023-09-18 03:59:00",15.1,14.3,5.8,0.0,0,999.9,1,2,"",95
"2023-09-18 04:00:00",15.1,14.3,5.8,0.0,0,999.9,1,2,"",95
"2023-09-18 04:01:00",15.1,14.3,5.8,0.0,0,999.9,2,3,"",95
"2023-09-18 04:02:00",15.1,14.3,5.8,0.0,0,999.9,1,2,"",95
"2023-09-18 04:03:00",15.1,14.5,5.8,0.0,0,999.9,1,2,"",96
"2023-09-18 04:04:00",15.1,14.5,5.8,0.0,0,999.9,1,2,"",96
"2023-09-18 04:05:00",15.1,14.5,5.8,0.0,0,999.9,1,2,"",96
"2023-09-18 04:06:00",15.1,14.5,5.8,0.0,0,999.9,1,2,"",96
"2023-09-18 04:07:00",15.1,14.5,5.8,0.0,0,999.9,1,2,"",96
"2023-09-18 04:08:00",15.1,14.5,5.8,0.0,0,999.9,2,4,"",96
"2023-09-18 04:09:00",15.1,14.5,5.8,0.0,0,999.9,1,2,"",96
"2023-09-18 04:10:00",15.1,14.5,5.8,0.0,0,999.8,1,2,"",96
"2023-09-18 04:11:00",15.1,14.5,5.8,0.0,0,999.8,2,3,"",96
"2023-09-18 04:12:00",15.1,14.5,5.8,0.0,0,999.9,2,4,"",96
"2023-09-18 04:13:00",15.2,14.6,5.8,0.0,0,999.8,1,2,"",96
"2023-09-18 04:14:00",15.1,14.5,5.8,0.0,0,999.8,1,2,"",96
"2023-09-18 04:15:00",15.1,14.5,5.8,0.0,0,999.8,1,2,"",96
"2023-09-18 04:16:00",15.2,14.6,5.8,0.0,0,999.9,1,2,"",96
"2023-09-18 04:17:00",15.2,14.6,6.0,0.0,0,999.8,1,2,"",96
"2023-09-18 04:18:00",15.2,14.6,6.0,0.0,0,999.9,1,2,"",96
"2023-09-18 04:19:00",15.2,14.6,6.0,0.0,0,999.9,0,1,"",96
"2023-09-18 04:20:00",15.3,14.7,6.0,0.0,0,999.8,1,3,"",96
"2023-09-18 04:21:00",15.3,14.7,6.0,0.0,0,999.8,3,8,"",96
"2023-09-18 04:22:00",15.3,14.7,6.0,0.0,0,999.8,2,3,"",96
"2023-09-18 04:23:00",15.3,14.7,6.0,0.0,0,999.8,0,1,"",96
"2023-09-18 04:24:00",15.3,14.7,6.0,0.0,0,999.8,1,2,"",96
"2023-09-18 04:25:00",15.3,14.7,6.0,0.0,0,999.7,0,1,"",96
"2023-09-18 04:26:00",15.3,14.7,6.0,0.0,0,999.7,1,2,"",96
"2023-09-18 04:27:00",15.3,14.7,6.0,0.0,0,999.8,1,2,"",96
"2023-09-18 04:28:00",15.3,14.7,6.0,0.0,0,999.8,1,2,"",96
"2023-09-18 04:29:00",15.3,14.5,6.0,0.0,0,999.7,1,2,"",95
"2023-09-18 04:30:00",15.2,14.6,6.0,0.0,0,999.8,1,2,"",96
"2023-09-18 04:31:00",15.2,14.4,6.0,0.0,0,999.8,1,3,"",95
"2023-09-18 04:32:00",15.2,14.4,6.0,0.0,0,999.8,1,2,"",95
"2023-09-18 04:33:00",15.2,14.6,6.0,0.0,0,999.8,1,2,"",96
"2023-09-18 04:34:00",15.2,14.4,6.0,0.0,0,999.8,2,3,"",95
"2023-09-18 04:35:00",15.2,14.6,6.0,0.0,0,999.7,1,2,"",96
"2023-09-18 04:36:00",15.3,14.7,6.0,0.0,0,999.7,1,2,"",96
"2023-09-18 04:37:00",15.2,14.6,6.0,0.0,0,999.7,1,2,"",96
"2023-09-18 04:38:00",15.3,14.7,6.0,0.0,0,999.7,1,2,"",96
"2023-09-18 04:39:00",15.2,14.6,6.0,0.0,0,999.7,1,2,"",96
"2023-09-18 04:40:00",15.2,14.6,6.0,0.0,0,999.7,1,2,"",96
"2023-09-18 04:41:00",15.3,14.7,6.0,0.0,0,999.6,1,2,"",96
"2023-09-18 04:42:00",15.2,14.6,6.0,0.0,0,999.7,1,2,"",96
"2023-09-18 04:43:00",15.3,14.7,6.0,0.0,0,999.7,2,2,"",96
"2023-09-18 04:44:00",15.3,14.7,6.0,0.0,0,999.7,1,2,"",96
"2023-09-18 04:45:00",15.3,14.7,6.0,0.0,0,999.7,1,3,"",96
"2023-09-18 04:46:00",15.3,14.7,6.0,0.0,0,999.7,2,2,"",96
"2023-09-18 04:47:00",15.3,14.7,6.0,0.0,0,999.7,1,2,"",96
"2023-09-18 04:48:00",15.3,14.7,6.0,0.0,0,999.7,1,2,"",96
"2023-09-18 04:49:00",15.4,14.8,6.0,0.0,0,999.7,1,2,"",96
"2023-09-18 04:50:00",15.4,14.8,6.0,0.0,0,999.7,1,2,"",96
"2023-09-18 04:51:00",15.6,15.0,6.0,0.0,0,999.7,1,1,"",96
"2023-09-18 04:52:00",15.6,15.0,6.0,0.0,0,999.7,1,1,"",96
"2023-09-18 04:53:00",15.6,15.0,6.0,0.0,0,999.7,1,2,"",96
"2023-09-18 04:54:00",15.6,15.0,6.0,0.0,0,999.7,1,2,"",96
"2023-09-18 04:55:00",15.6,15.0,6.0,0.0,0,999.7,2,4,"",96
"2023-09-18 04:56:00",15.6,15.0,6.0,0.0,0,999.7,1,3,"",96
"2023-09-18 04:57:00",15.7,15.1,6.0,0.0,0,999.7,1,2,"",96
"2023-09-18 04:58:00",15.6,15.0,6.0,0.0,0,999.7,2,2,"",96
"2023-09-18 04:59:00",15.7,15.1,6.0,0.0,0,999.7,1,2,"",96
"2023-09-18 05:00:00",15.7,15.1,6.0,0.0,0,999.7,1,2,"",96
"2023-09-18 05:01:00",15.7,15.1,6.0,0.0,0,999.7,1,2,"",96
"2023-09-18 05:02:00",15.8,15.2,6.0,0.0,0,999.7,1,2,"",96
"2023-09-18 05:03:00",15.8,15.2,6.0,0.0,0,999.7,2,3,"",96
"2023-09-18 05:04:00",15.8,15.2,6.0,0.0,0,999.7,2,4,"",96
"2023-09-18 05:05:00",15.9,15.3,6.0,0.0,0,999.6,2,3,"",96
"2023-09-18 05:06:00",15.9,15.3,6.0,0.0,0,999.7,1,2,"",96
"2023-09-18 05:07:00",15.9,15.3,6.0,0.0,0,999.7,2,2,"",96
"2023-09-18 05:08:00",16.0,15.4,6.0,0.0,0,999.7,1,2,"",96
"2023-09-18 05:09:00",16.1,15.5,6.0,0.0,0,999.6,2,3,"",96
"2023-09-18 05:10:00",16.1,15.5,6.0,0.0,0,999.7,2,3,"",96
"2023-09-18 05:11:00",16.1,15.5,6.0,0.0,0,999.7,1,2,"",96
"2023-09-18 05:12:00",16.1,15.5,6.0,0.0,0,999.7,2,3,"",96
"2023-09-18 05:13:00",16.2,15.6,6.0,0.0,0,999.7,2,2,"",96
"2023-09-18 05:14:00",16.2,15.6,6.0,0.0,0,999.7,1,3,"",96
"2023-09-18 05:15:00",16.2,15.6,6.0,0.0,0,999.6,1,2,"",96
"2023-09-18 05:16:00",16.2,15.6,6.0,0.0,0,999.7,1,2,"",96
"2023-09-18 05:17:00",16.3,15.7,6.0,0.0,0,999.7,1,2,"",96
"2023-09-18 05:18:00",16.3,15.7,6.0,0.0,0,999.7,1,3,"",96
"2023-09-18 05:19:00",16.3,15.7,6.0,0.0,0,999.7,1,2,"",96
"2023-09-18 05:20:00",16.3,15.7,6.0,0.0,0,999.7,0,1,"",96
"2023-09-18 05:21:00",16.3,15.7,6.0,0.0,0,999.7,0,1,"",96
"2023-09-18 05:22:00",16.3,15.7,6.0,0.0,0,999.7,1,3,"",96
"2023-09-18 05:23:00",16.3,15.7,6.0,0.0,0,999.7,1,2,"",96
"2023-09-18 05:24:00",16.4,15.8,6.0,0.0,0,999.7,1,2,"",96
"2023-09-18 05:25:00",16.4,15.8,6.0,0.0,0,999.7,1,2,"",96
"2023-09-18 05:26:00",16.4,15.8,6.0,0.0,0,999.7,1,3,"",96
"2023-09-18 05:27:00",16.4,15.8,6.0,0.0,0,999.7,0,1,"",96
"2023-09-18 05:28:00",16.4,15.8,6.0,0.0,0,999.7,0,2,"",96
"2023-09-18 05:29:00",16.4,15.8,6.0,0.0,0,999.7,1,2,"",96
"2023-09-18 05:30:00",16.4,15.8,6.0,0.0,0,999.7,0,2,"",96
"2023-09-18 05:31:00",16.4,15.8,6.0,0.0,0,999.7,0,1,"",96
"2023-09-18 05:32:00",16.4,15.8,6.0,0.0,0,999.7,0,1,"",96
"2023-09-18 05:33:00",16.4,15.8,6.0,0.0,0,999.7,1,1,"",96
"2023-09-18 05:34:00",16.4,15.8,6.0,0.0,0,999.8,1,1,"",96
"2023-09-18 05:35:00",16.4,15.8,6.0,0.0,0,999.7,1,2,"",96
"2023-09-18 05:36:00",16.4,15.8,6.0,0.0,0,999.8,1,2,"",96
"2023-09-18 05:37:00",16.4,15.8,6.0,0.0,0,999.8,1,3,"",96
"2023-09-18 05:38:00",16.4,15.8,6.0,0.0,0,999.8,1,2,"",96
"2023-09-18 05:39:00",16.5,15.9,6.0,0.0,0,999.9,1,2,"",96
"2023-09-18 05:40:00",16.5,15.9,6.0,0.0,0,999.8,0,1,"",96
"2023-09-18 05:41:00",16.6,16.0,6.0,0.0,0,999.8,1,2,"",96
"2023-09-18 05:42:00",16.6,16.0,6.0,0.0,0,999.8,1,2,"",96
"2023-09-18 05:43:00",16.6,16.0,6.0,0.0,0,999.8,1,2,"",96
"2023-09-18 05:44:00",16.6,16.0,6.0,0.0,0,999.7,1,2,"",96
"2023-09-18 05:45:00",16.5,15.9,6.0,0.0,0,999.7,1,2,"",96
"2023-09-18 05:46:00",16.5,15.9,6.0,0.0,0,999.7,1,3,"",96
"2023-09-18 05:47:00",16.4,15.8,6.0,0.0,0,999.7,1,2,"",96
"2023-09-18 05:48:00",16.4,15.8,6.0,0.0,0,999.7,1,2,"",96
"2023-09-18 05:49:00",16.3,15.7,6.0,0.0,0,999.6,1,1,"",96
"2023-09-18 05:50:00",16.3,15.7,6.0,0.0,0,999.6,1,2,"",96
"2023-09-18 05:51:00",16.3,15.7,6.0,0.0,0,999.6,1,2,"",96
"2023-09-18 05:52:00",16.3,15.7,6.0,0.0,0,999.6,1,2,"",96
"2023-09-18 05:53:00",16.3,15.7,6.0,0.0,0,999.6,1,2,"",96
"2023-09-18 05:54:00",16.2,15.6,6.0,0.0,0,999.7,1,2,"",96
"2023-09-18 05:55:00",16.2,15.6,6.0,0.0,0,999.7,1,2,"",96
"2023-09-18 05:56:00",16.1,15.5,6.0,0.0,0,999.7,1,2,"",96
"2023-09-18 05:57:00",16.1,15.3,6.0,0.0,0,999.7,1,2,"",95
"2023-09-18 05:58:00",16.0,15.2,6.0,0.0,0,999.7,1,2,"",95
"2023-09-18 05:59:00",15.9,15.1,6.0,0.0,0,999.7,1,2,"",95
"2023-09-18 06:00:00",15.8,15.0,6.0,0.0,0,999.7,1,2,"",95
"2023-09-18 06:01:00",15.8,15.0,6.0,0.0,0,999.7,1,2,"",95
"2023-09-18 06:02:00",15.8,15.0,6.0,0.0,0,999.7,2,3,"",95
"2023-09-18 06:03:00",15.7,14.9,6.0,0.0,0,999.7,1,3,"",95
"2023-09-18 06:04:00",15.7,14.9,6.0,0.0,0,999.7,1,2,"",95
"2023-09-18 06:05:00",15.7,14.9,6.0,0.0,0,999.7,1,2,"",95
"2023-09-18 06:06:00",15.7,14.9,6.0,0.0,0,999.7,1,2,"",95
"2023-09-18 06:07:00",15.7,14.9,6.0,0.0,0,999.7,1,2,"",95
"2023-09-18 06:08:00",15.7,14.9,6.0,0.0,0,999.7,1,2,"",95
"2023-09-18 06:09:00",15.7,15.1,6.0,0.0,0,999.7,2,3,"",96
"2023-09-18 06:10:00",15.7,15.1,6.0,0.0,0,999.7,1,4,"",96
"2023-09-18 06:11:00",15.7,15.1,6.0,0.0,0,999.7,1,2,"",96
"2023-09-18 06:12:00",15.7,15.1,6.0,0.0,0,999.7,1,2,"",96
"2023-09-18 06:13:00",15.7,15.1,6.0,0.0,0,999.7,1,2,"",96
"2023-09-18 06:14:00",15.7,15.1,6.0,0.0,0,999.7,1,2,"",96
"2023-09-18 06:15:00",15.7,15.1,6.0,0.0,0,999.7,1,2,"",96
"2023-09-18 06:16:00",15.7,15.1,6.0,0.0,0,999.6,1,3,"",96
"2023-09-18 06:17:00",15.6,15.0,6.0,0.0,0,999.6,1,2,"",96
"2023-09-18 06:18:00",15.6,15.0,6.0,0.0,0,999.6,1,2,"",96
"2023-09-18 06:19:00",15.5,14.9,6.0,0.0,0,999.6,1,2,"",96
"2023-09-18 06:20:00",15.4,14.8,6.0,0.0,0,999.6,1,2,"",96
"2023-09-18 06:21:00",15.4,14.8,6.0,0.0,0,999.6,1,2,"",96
"2023-09-18 06:22:00",15.4,14.8,6.0,0.0,0,999.6,1,2,"",96
"2023-09-18 06:23:00",15.3,14.5,6.0,0.0,0,999.6,1,2,"",95
"2023-09-18 06:24:00",15.3,14.5,6.0,0.0,0,999.6,1,2,"",95
"2023-09-18 06:25:00",15.3,14.5,6.0,0.0,0,999.6,1,2,"",95
"2023-09-18 06:26:00",15.3,14.5,6.0,0.0,0,999.6,1,2,"",95
"2023-09-18 06:27:00",15.3,14.5,6.0,0.0,0,999.6,1,2,"",95
"2023-09-18 06:28:00",15.3,14.7,6.0,0.0,0,999.6,1,2,"",96
"2023-09-18 06:29:00",15.3,14.5,6.0,0.0,0,999.6,1,2,"",95
"2023-09-18 06:30:00",15.3,14.7,6.0,0.0,0,999.6,1,1,"",96
"2023-09-18 06:31:00",15.3,14.7,6.0,0.0,0,999.6,1,2,"",96
"2023-09-18 06:32:00",15.2,14.6,6.0,0.0,0,999.6,1,2,"",96
"2023-09-18 06:33:00",15.2,14.6,6.0,0.0,0,999.6,1,2,"",96
"2023-09-18 06:34:00",15.2,14.6,6.0,0.0,0,999.6,1,3,"",96
"2023-09-18 06:35:00",15.2,14.6,6.0,0.0,0,999.6,1,2,"",96
"2023-09-18 06:36:00",15.2,14.6,6.0,0.0,0,999.6,1,2,"",96
"2023-09-18 06:37:00",15.2,14.6,6.0,0.0,0,999.6,1,2,"",96
"2023-09-18 06:38:00",15.3,14.7,6.0,0.0,0,999.6,1,2,"",96
"2023-09-18 06:39:00",15.3,14.7,6.0,0.0,0,999.6,1,2,"",96
"2023-09-18 06:40:00",15.3,14.7,6.0,0.0,0,999.6,1,2,"",96
"2023-09-18 06:41:00",15.3,14.7,6.0,0.0,0,999.5,1,2,"",96
"2023-09-18 06:42:00",15.3,14.7,6.0,0.0,0,999.5,1,2,"",96
"2023-09-18 06:43:00",15.3,14.7,6.0,0.0,0,999.5,1,2,"",96
"2023-09-18 06:44:00",15.3,14.7,6.0,0.0,0,999.5,1,1,"",96
"2023-09-18 06:45:00",15.3,14.7,6.0,0.0,0,999.6,1,2,"",96
"2023-09-18 06:46:00",15.2,14.6,6.0,0.0,0,999.6,1,2,"",96
"2023-09-18 06:47:00",15.2,14.6,6.0,0.0,0,999.6,1,2,"",96